Regional Weather Roundup
Issued by NWS Cleveland, OH

Home | Current Version | Previous Version | Graphics & Text | Print | Product List | Glossary On
Versions: 1 2 3 4 5 6 7 8 9 10 11 12 13 14 15 16 17 18 19 20 21 22 23 24 25 26 27 28 29 30 31 32 33 34 35 36 37 38 39 40 41 42 43 44 45 46 47 48 49 50
000
ASUS41 KCLE 240810
RWRCLE
OHIO REGIONAL WEATHER ROUNDUP
NATIONAL WEATHER SERVICE CLEVELAND, OH
400 AM EDT THU APR 24 2014

NOTE: "FAIR" INDICATES FEW OR NO CLOUDS BELOW 12,000 FEET WITH NO
SIGNIFICANT WEATHER AND/OR OBSTRUCTIONS TO VISIBILITY.

OHZ001>008-015>018-024>027-034-035-043-044-240900-
   NORTHWEST OHIO

CITY           SKY/WX    TMP DP  RH WIND       PRES   REMARKS
DEFIANCE       CLOUDY    48  31  51 SE5       30.10S
FINDLAY        CLOUDY    44  31  60 SE7       30.09S
TOLEDO EXPRESS CLOUDY    44  30  57 E3        30.11R
TOLEDO EXEC    CLOUDY    43  32  65 E5        30.13R
LIMA           CLOUDY    46  31  55 SE10      30.08F
$$

OHZ009>014-019>023-028>033-038-089-240900-
   NORTHEAST OHIO

CITY           SKY/WX    TMP DP  RH WIND       PRES   REMARKS
CLE-HOPKINS    MOCLDY    39  20  46 E3        30.13F
CLE-LAKEFRONT  PTCLDY    38  18  44 NE5       30.10S
CUY CO. ARPT   NOT AVBL
LORAIN-ELYRIA  PTCLDY    36  30  79 CALM      30.12R
ASHTABULA      PTCLDY    27  21  78 CALM      30.11S
AKRON-CANTON   PTCLDY    34  25  69 CALM      30.09F
WOOSTER        PTCLDY    33  29  85 CALM      30.12R
MANSFIELD      MOCLDY    39  24  55 E3        30.10R
YOUNGSTOWN     PTCLDY    30  18  60 N3        30.09R
$$

OHZ042-051>053-060>062-070>072-077>081-240900-
  SOUTHWEST OHIO

CITY           SKY/WX    TMP DP  RH WIND       PRES   REMARKS
CINC-COVINGTON CLOUDY    50  34  54 E12       30.05S
CINC-LUNKEN    CLOUDY    49  34  56 CALM      30.08R
HAMILTON       CLOUDY    49  35  58 E6        30.08S
DAYTON         CLOUDY    47  31  53 E10       30.08S
WRIGHT-PAT AFB CLOUDY    46  32  58 E8        30.08S
DAYTON GENERAL CLOUDY    47  32  56 E8        30.07R
WILMINGTON     CLOUDY    44  31  60 E7        30.07S
$$

OHZ036-037-039>041-045>050-054>059-063>069-073>076-082>088-240900-
  CENTRAL AND SOUTHEAST OHIO

CITY           SKY/WX    TMP DP  RH WIND       PRES   REMARKS
COLUMBUS       CLOUDY    45  30  55 E3        30.10S
OSU AIRPORT    MOCLDY    42  31  64 E5        30.11R
BOLTON FIELD   MOCLDY    44  31  61 E6        30.11R
RICKENBACK AFB MOCLDY    44  30  59 E5        30.10S
NEWARK         PTCLDY    38  31  76 CALM      30.11R
MARION         CLOUDY    42  30  62 SE6       30.11R
LANCASTER      MOCLDY    41  31  67 E6        30.11R
ZANESVILLE     PTCLDY    34  28  79 CALM      30.11R
NEW PHILLY     PTCLDY    30  25  81 CALM      30.12R
$$



USA.gov is the U.S. government's official web portal to all federal, state and local government web resources and services.